New Castle, DE

3:00 PM EST on February 14, 2016 (GMT -0500)
New Castle County

Weather History for KILG - March, 2014

Change the Weather History Date:

Saturday, March 22, 2014

  Actual Average Record
Temperature  
Mean Temperature 53 °F 45 °F  
Max Temperature 69 °F 55 °F 82 °F (1948)
Min Temperature 36 °F 35 °F 18 °F (1930)
Degree Days  
Heating Degree Days 12 20  
Month to date heating degree days 595 516  
Since 1 July heating degree days 4450 4139  
Cooling Degree Days 0 0  
Month to date cooling degree days 0 0  
Year to date cooling degree days 0 0  
Growing Degree Days 2 (Base 50)    
Moisture  
Dew Point 33 °F    
Average Humidity 57    
Maximum Humidity 92    
Minimum Humidity 21    
Precipitation  
Precipitation 0.00 in 0.13 in 2.22 in (1977)
Month to date precipitation 1.53 2.69  
Year to date precipitation 10.11 8.38  
Snow  
Snow 0.00 in 0.10 in 2.70 in (1964)
Month to date snowfall 7.0 1.7  
Since 1 July snowfall 55.4 19.7  
Snow Depth 0.00 in    
Sea Level Pressure  
Sea Level Pressure 29.90 in    
Wind  
Wind Speed 10 mph (WSW)    
Max Wind Speed 26 mph    
Max Gust Speed 34 mph    
Visibility 9 miles    
Events      
T = Trace of Precipitation, MM = Missing Value Source: NWS Daily Summary

Daily Weather History Graph

Daily Weather History Graph

Search for Another Location

Airport or City:

Trip Planner

Search our weather history database for the weather conditions in past years. The results will help you decide how hot, cold, wet, or windy it might be!

Date:

Astronomy

Mar. 22, 2014 Rise Set
Actual Time 7:02 AM EDT 7:16 PM EDT
Civil Twilight 6:35 AM EDT 7:43 PM EDT
Nautical Twilight 6:04 AM EDT 8:15 PM EDT
Astronomical Twilight 5:32 AM EDT 8:47 PM EDT
Moon 12:32 AM EDT (3/22) 10:44 AM EDT (3/22)
Length of Visible Light 13h 07m
Length of Day
12h 13m
Waning Gibbous, 65% of the Moon is Illuminated
Mar 22
Waning Gibbous
Mar 23
Last Quarter
Mar 30
New
Apr 7
First Quarter
Apr 15
Full

Hourly Weather History & Observations

Time (EDT) Temp. Windchill Dew Point Humidity Pressure Visibility Wind Dir Wind Speed Gust Speed Precip Events Conditions
12:51 AM 39.0 °F 35.7 °F 36.0 °F 89% 30.04 in 6.0 mi SSE 4.6 mph - N/A   Clear
1:51 AM 37.9 °F - 36.0 °F 93% 30.03 in 5.0 mi Calm Calm - N/A   Clear
2:51 AM 37.0 °F 34.5 °F 34.0 °F 89% 29.99 in 6.0 mi ENE 3.5 mph - N/A   Clear
3:51 AM 39.0 °F 34.8 °F 35.1 °F 86% 29.96 in 9.0 mi East 5.8 mph - N/A   Clear
4:51 AM 39.9 °F 35.8 °F 35.1 °F 83% 29.92 in 8.0 mi ENE 5.8 mph - N/A   Clear
5:51 AM 39.9 °F 36.7 °F 35.1 °F 83% 29.89 in 9.0 mi ESE 4.6 mph - N/A   Clear
6:51 AM 41.0 °F 37.1 °F 36.0 °F 82% 29.87 in 8.0 mi SE 5.8 mph - N/A   Clear
7:51 AM 43.0 °F 39.5 °F 37.9 °F 82% 29.87 in 5.0 mi South 5.8 mph - N/A   Haze
8:51 AM 44.1 °F 41.5 °F 39.0 °F 82% 29.85 in 8.0 mi SSW 4.6 mph - N/A   Clear
9:51 AM 48.9 °F - 37.9 °F 66% 29.84 in 10.0 mi SW 9.2 mph - N/A   Clear
10:51 AM 54.0 °F - 36.0 °F 51% 29.84 in 10.0 mi WSW 20.7 mph - N/A   Partly Cloudy
11:51 AM 55.9 °F - 34.0 °F 44% 29.84 in 10.0 mi WSW 17.3 mph - N/A   Partly Cloudy
12:51 PM 57.0 °F - 35.1 °F 44% 29.84 in 10.0 mi WSW 15.0 mph - N/A   Clear
1:51 PM 61.0 °F - 36.0 °F 39% 29.83 in 10.0 mi SW 11.5 mph - N/A   Clear
2:51 PM 62.1 °F - 35.1 °F 37% 29.81 in 10.0 mi SW 12.7 mph - N/A   Clear
3:51 PM 66.9 °F - 32.0 °F 27% 29.82 in 10.0 mi WSW 13.8 mph 21.9 mph N/A   Clear
4:51 PM 68.0 °F - 26.1 °F 21% 29.84 in 10.0 mi WNW 19.6 mph 33.4 mph N/A   Clear
5:51 PM 64.9 °F - 30.0 °F 27% 29.87 in 10.0 mi NW 18.4 mph 25.3 mph N/A   Clear
6:51 PM 61.0 °F - 28.0 °F 29% 29.90 in 10.0 mi NW 13.8 mph - N/A   Clear
7:51 PM 53.1 °F - 27.0 °F 37% 29.92 in 10.0 mi NNW 9.2 mph - N/A   Clear
8:51 PM 54.0 °F - 27.0 °F 35% 29.94 in 10.0 mi South 8.1 mph - N/A   Clear
9:51 PM 54.0 °F - 27.0 °F 35% 29.98 in 10.0 mi NW 11.5 mph - N/A   Clear
10:51 PM 48.9 °F - 27.0 °F 43% 29.99 in 10.0 mi NNW 10.4 mph - N/A   Clear
11:51 PM 48.9 °F - 27.0 °F 43% 30.01 in 10.0 mi NNW 10.4 mph - N/A   Clear